CW6144 Weather Reports


Display with metric or nautical units.
time (UTC)temp
F
wind
direction
speed
MPH
gust
MPH
rain 1hr
in
rain 24hr
in
rain mn
in
humidity
%
barometer
mb
20260505205007 59 26 5.0 15.0 0.00 0.52 0.52 90 1007.3
20260505204518 60 12 6.0 15.0 0.00 0.52 0.52 88 1007.5
20260505204011 62 336 4.0 10.0 0.00 0.52 0.52 89 1007.6
20260505203512 63 9 2.0 9.0 0.00 0.52 0.52 88 1007.5
20260505203021 64 16 5.0 9.0 0.00 0.52 0.52 89 1007.4
20260505202508 65 326 1.0 2.0 0.00 0.52 0.52 91 1007.2
20260505202012 65 59 2.0 5.0 0.00 0.52 0.52 91 1007.1
20260505201526 65 111 2.0 5.0 0.00 0.52 0.52 90 1007.0
20260505201011 65 123 1.0 4.0 0.00 0.52 0.52 90 1007.0
20260505200513 65 143 2.0 5.0 0.00 0.52 0.52 90 1007.0
20260505200029 65 157 2.0 5.0 0.00 0.52 0.52 90 1007.1
20260505195509 65 103 1.0 4.0 0.00 0.52 0.52 90 1007.2
20260505195009 65 182 1.0 4.0 0.00 0.52 0.52 90 1007.3
20260505194529 65 240 1.0 5.0 0.00 0.52 0.52 91 1007.5
20260505194004 65 188 2.0 5.0 0.00 0.52 0.52 91 1007.4
20260505193502 65 209 1.0 5.0 0.00 0.52 0.52 91 1007.3
20260505193012 65 212 1.0 9.0 0.00 0.52 0.52 91 1007.4
20260505192512 65 178 3.0 9.0 0.00 0.52 0.52 91 1007.4
20260505192007 65 217 3.0 9.0 0.00 0.52 0.52 91 1007.3
20260505191505 64 213 4.0 7.0 0.00 0.52 0.52 92 1007.3
20260505191014 64 234 3.0 5.0 0.00 0.52 0.52 92 1007.4
20260505190505 64 157 2.0 9.0 0.00 0.52 0.52 92 1007.4
20260505190024 64 188 2.0 9.0 0.00 0.52 0.52 92 1007.3
20260505185512 64 119 3.0 6.0 0.00 0.52 0.52 92 1007.1
20260505185006 64 360 2.0 6.0 0.00 0.52 0.52 92 1007.1
20260505184516 63 145 3.0 6.0 0.00 0.52 0.52 92 1007.1
20260505184009 63 203 2.0 5.0 0.00 0.52 0.52 92 1007.2
20260505183511 63 184 2.0 4.0 0.00 0.52 0.52 92 1007.3
20260505183029 63 167 1.0 3.0 0.00 0.52 0.52 92 1007.3
20260505182502 63 165 2.0 5.0 0.00 0.52 0.52 92 1007.2
20260505182013 63 211 1.0 5.0 0.00 0.52 0.52 92 1007.1
20260505181526 63 156 2.0 5.0 0.00 0.52 0.52 92 1007.3
20260505181010 63 176 1.0 5.0 0.00 0.52 0.52 92 1007.2
20260505180504 63 176 1.0 5.0 0.00 0.52 0.52 92 1007.2
20260505180040 63 185 1.0 5.0 0.00 0.52 0.52 92 1007.2
20260505175509 63 195 2.0 5.0 0.00 0.52 0.52 92 1007.3
20260505175011 63 149 2.0 5.0 0.00 0.52 0.52 92 1007.4
20260505174537 63 133 2.0 5.0 0.00 0.52 0.52 92 1007.4
20260505174006 63 194 3.0 6.0 0.00 0.52 0.52 91 1007.5
20260505173507 63 200 2.0 7.0 0.00 0.52 0.52 91 1007.5
20260505173028 63 173 2.0 7.0 0.00 0.52 0.52 91 1007.4
20260505172509 63 169 2.0 6.0 0.00 0.52 0.52 91 1007.5
20260505172008 63 130 3.0 7.0 0.00 0.52 0.52 91 1007.5
20260505171530 63 246 4.0 8.0 0.00 0.52 0.52 90 1007.5
20260505171010 63 167 4.0 9.0 0.00 0.52 0.52 90 1007.5
20260505170504 63 234 3.0 9.0 0.00 0.52 0.52 90 1007.5
20260505170016 63 138 4.0 8.0 0.00 0.52 0.52 90 1007.5
20260505165507 63 217 2.0 8.0 0.00 0.52 0.52 91 1007.4
20260505165007 63 224 1.0 7.0 0.00 0.52 0.52 91 1007.3
20260505164517 63 225 4.0 7.0 0.00 0.52 0.52 90 1007.3
20260505164010 63 137 2.0 8.0 0.00 0.52 0.52 91 1007.2
20260505163507 63 182 1.0 8.0 0.00 0.52 0.52 91 1007.1
20260505163035 63 151 1.0 5.0 0.00 0.52 0.52 91 1007.1
20260505162509 63 189 2.0 9.0 0.00 0.52 0.52 92 1007.0
20260505162007 63 171 3.0 9.0 0.00 0.52 0.52 91 1007.1
20260505161519 62 211 3.0 8.0 0.00 0.52 0.52 92 1007.1
20260505161007 62 203 4.0 8.0 0.00 0.52 0.52 91 1007.1
20260505160510 62 167 2.0 6.0 0.00 0.52 0.52 91 1007.2
20260505153034 62 218 1.0 8.0 0.00 0.52 0.52 92 1007.1
20260505152516 62 155 3.0 8.0 0.00 0.52 0.52 92 1007.2
20260505152013 61 170 3.0 6.0 0.00 0.52 0.52 93 1007.3
20260505151519 61 177 1.0 4.0 0.00 0.52 0.52 93 1007.3
20260505151012 60 177 1.0 5.0 0.00 0.52 0.52 94 1007.4
20260505150510 60 132 0.0 5.0 0.00 0.52 0.52 94 1007.4
20260505140510 58 223 3.0 12.0 0.01 0.52 0.52 93 1007.3
20260505125011 57 202 2.0 10.0 0.00 0.52 0.52 94 1007.3
20260505124524 57 220 4.0 8.0 0.00 0.52 0.52 94 1007.3
20260505124011 57 190 3.0 11.0 0.00 0.52 0.52 94 1007.3
20260505123508 57 194 5.0 9.0 0.00 0.52 0.52 94 1007.2
20260505123049 57 163 4.0 7.0 0.00 0.52 0.52 94 1007.3
20260505122510 57 255 2.0 6.0 0.00 0.52 0.52 94 1007.3
20260505122007 57 188 2.0 6.0 0.00 0.52 0.52 94 1007.3
20260505121529 57 228 2.0 6.0 0.00 0.52 0.52 94 1007.3
20260505121007 57 105 1.0 6.0 0.00 0.52 0.52 94 1007.1
20260505120507 57 171 2.0 5.0 0.00 0.52 0.52 94 1007.2
20260505120027 57 214 2.0 5.0 0.00 0.52 0.52 94 1007.3
20260505115510 57 134 0.0 3.0 0.00 0.52 0.52 93 1007.2
20260505115020 57 224 0.0 3.0 0.00 0.52 0.52 93 1007.2
20260505114531 57 209 1.0 2.0 0.00 0.52 0.52 93 1007.2
20260505114010 57 115 1.0 4.0 0.00 0.52 0.52 93 1007.2
20260505113508 57 217 2.0 4.0 0.00 0.52 0.52 93 1007.2
20260505113033 57 219 1.0 4.0 0.00 0.52 0.52 93 1007.2
20260505112507 57 113 1.0 4.0 0.00 0.52 0.52 93 1007.3
20260505112011 57 160 2.0 3.0 0.00 0.52 0.52 93 1007.4
20260505111549 57 223 1.0 3.0 0.00 0.52 0.52 93 1007.5
20260505111008 57 13 0.0 2.0 0.00 0.52 0.52 93 1007.8
20260505110501 57 35 1.0 2.0 0.01 0.52 0.52 93 1007.9
20260505102003 57 309 3.0 6.0 0.16 0.52 0.52 93 1008.1
20260505101532 57 241 1.0 3.0 0.17 0.52 0.52 92 1007.7
20260505101010 57 30 2.0 3.0 0.17 0.52 0.52 92 1007.4
20260505100510 57 305 0.0 5.0 0.18 0.51 0.51 92 1007.6
20260505100012 57 173 2.0 5.0 0.17 0.48 0.48 92 1007.5
20260505095505 57 209 2.0 6.0 0.17 0.43 0.43 92 1007.6
20260505095008 57 88 2.0 6.0 0.23 0.43 0.43 92 1007.4
20260505094502 57 256 1.0 3.0 0.31 0.42 0.42 92 1008.0
20260505094002 57 282 1.0 3.0 0.36 0.42 0.42 92 1007.6
20260505093512 57 115 2.0 5.0 0.34 0.40 0.40 92 1007.1
20260505093028 57 246 2.0 5.0 0.31 0.36 0.36 92 1007.6
20260505092510 57 309 1.0 6.0 0.31 0.36 0.36 91 1006.8
20260505092002 57 342 2.0 11.0 0.31 0.36 0.36 91 1006.5
20260505091507 57 37 6.0 11.0 0.30 0.35 0.35 91 1006.5
20260505091011 58 5 4.0 7.0 0.32 0.35 0.35 90 1007.6
20260505090508 58 341 2.0 8.0 0.31 0.33 0.33 90 1008.4
20260505090012 58 327 2.0 9.0 0.30 0.31 0.31 89 1008.4
20260505085504 58 284 4.0 9.0 0.25 0.26 0.26 89 1008.4
20260505085010 58 306 4.0 9.0 0.20 0.20 0.20 89 1008.1
20260505084513 58 274 5.0 9.0 0.11 0.11 0.11 88 1007.7
20260505084003 58 317 5.0 8.0 0.06 0.06 0.06 88 1006.5
20260505083502 59 342 5.0 8.0 0.06 0.06 0.06 87 1006.6
20260505083033 59 323 1.0 9.0 0.05 0.05 0.05 86 1006.8
20260505082507 59 180 2.0 14.0 0.05 0.05 0.05 86 1005.9
20260505082003 59 188 5.0 14.0 0.05 0.05 0.05 84 1006.0
20260505081507 60 179 3.0 12.0 0.05 0.05 0.05 84 1006.2
20260505081014 60 196 4.0 11.0 0.03 0.03 0.03 82 1006.3
20260505080513 60 209 4.0 11.0 0.02 0.02 0.02 81 1006.7
20260505080035 61 206 3.0 7.0 0.01 0.01 0.01 79 1007.0
20260505075502 61 232 3.0 8.0 0.01 0.01 0.01 78 1007.1
20260505075003 61 253 3.0 8.0 0.00 0.00 0.00 75 1007.3
20260505074527 61 261 3.0 8.0 0.00 0.00 0.00 75 1007.5
20260505074009 61 253 2.0 9.0 0.00 0.00 0.00 74 1007.1
20260505073510 61 300 2.0 9.0 0.00 0.00 0.00 75 1007.0
20260505073021 61 182 4.0 14.0 0.00 0.00 0.00 74 1006.8
20260505072506 62 176 5.0 21.0 0.00 0.00 0.00 74 1006.5
20260505072010 62 198 6.0 21.0 0.00 0.00 0.00 73 1006.0
20260505071503 62 209 8.0 16.0 0.00 0.00 0.00 72 1006.3
20260505071003 62 194 5.0 14.0 0.00 0.00 0.00 71 1006.5
20260505070510 62 182 5.0 14.0 0.00 0.00 0.00 72 1006.8
20260505070028 62 186 6.0 12.0 0.00 0.00 0.00 72 1006.8
20260505065509 62 176 4.0 15.0 0.00 0.00 0.00 71 1006.9
20260505065004 62 197 7.0 15.0 0.00 0.00 0.00 71 1007.1
20260505064511 62 188 5.0 11.0 0.00 0.00 0.00 71 1007.3
20260505064010 62 171 4.0 11.0 0.00 0.00 0.00 71 1007.4
20260505063510 62 208 5.0 13.0 0.00 0.00 0.00 71 1007.4
20260505063018 62 199 6.0 13.0 0.00 0.00 0.00 71 1007.7
20260505062508 62 198 6.0 15.0 0.00 0.00 0.00 71 1007.7
20260505062004 62 169 6.0 15.0 0.00 0.00 0.00 71 1007.7
20260505061504 62 171 8.0 14.0 0.00 0.00 0.00 72 1007.7
20260505061006 62 183 6.0 12.0 0.00 0.00 0.00 72 1007.8
20260505060504 62 160 5.0 13.0 0.00 0.00 0.00 72 1007.7
20260505060029 62 188 6.0 13.0 0.00 0.00 0.00 72 1007.9
20260505055512 62 209 5.0 12.0 0.00 0.00 0.00 72 1007.9
20260505055003 62 137 4.0 11.0 0.00 0.00 0.00 72 1008.0
20260505054511 62 147 6.0 11.0 0.00 0.00 0.00 72 1008.0
20260505054008 62 178 5.0 11.0 0.00 0.00 0.00 72 1007.9
20260505053514 62 194 4.0 12.0 0.00 0.00 0.00 72 1007.9
20260505053026 62 184 5.0 12.0 0.00 0.00 0.00 72 1007.9
20260505052508 62 183 6.0 10.0 0.00 0.00 0.00 72 1007.9
20260505052008 62 191 4.0 9.0 0.00 0.00 0.00 72 1007.9
20260505051519 62 203 5.0 14.0 0.00 0.00 0.00 72 1008.1
20260505051007 62 178 7.0 13.0 0.00 0.00 0.00 72 1008.2
20260505050511 62 218 4.0 12.0 0.00 0.00 0.00 72 1008.2
20260505041528 63 221 3.0 11.0 0.00 0.00 0.00 70 1008.8
20260505041007 63 204 3.0 11.0 0.00 0.00 0.00 70 1008.8
20260505040507 63 198 3.0 9.0 0.00 0.00 0.00 70 1008.9
20260505040022 63 194 3.0 9.0 0.00 0.00 0.00 70 1008.9
20260505035506 63 175 4.0 9.0 0.00 0.00 0.00 70 1009.0
20260505035007 63 175 4.0 12.0 0.00 0.00 0.00 70 1009.1
20260505034507 63 184 2.0 12.0 0.00 0.00 0.00 70 1009.2
20260505034003 63 164 3.0 12.0 0.00 0.00 0.00 70 1009.2
20260505033510 63 185 2.0 12.0 0.00 0.00 0.00 69 1009.3
20260505033031 63 184 3.0 9.0 0.00 0.00 0.00 69 1009.5
20260505032511 63 196 4.0 10.0 0.00 0.00 0.00 69 1009.4
20260505032004 63 184 2.0 11.0 0.00 0.00 0.00 69 1009.4
20260505031515 63 180 5.0 11.0 0.00 0.00 0.00 69 1009.5
20260505031008 63 196 2.0 10.0 0.00 0.00 0.00 69 1009.3
20260505030510 63 244 5.0 9.0 0.00 0.00 0.00 68 1009.3
20260505030019 63 207 3.0 10.0 0.00 0.00 0.00 68 1009.2
20260505025506 64 155 5.0 11.0 0.00 0.00 0.00 68 1009.1
20260505025006 64 250 4.0 11.0 0.00 0.00 0.00 68 1009.0
20260505024536 64 190 6.0 15.0 0.00 0.00 0.00 68 1009.0
20260505024006 64 176 6.0 14.0 0.00 0.00 0.00 68 1008.9
20260505023503 64 122 5.0 12.0 0.00 0.00 0.00 68 1008.6
20260505023024 64 227 5.0 13.0 0.00 0.00 0.00 68 1008.5
20260505022517 64 212 4.0 14.0 0.00 0.00 0.00 67 1008.5
20260505022011 64 166 6.0 14.0 0.00 0.00 0.00 67 1008.3
20260505021514 64 156 4.0 14.0 0.00 0.00 0.00 67 1008.3
20260505021004 64 180 5.0 14.0 0.00 0.00 0.00 67 1008.2
20260505020506 64 239 5.0 14.0 0.00 0.00 0.00 67 1008.2
20260505020015 64 175 7.0 14.0 0.00 0.00 0.00 67 1008.2
20260505015511 64 178 5.0 15.0 0.00 0.00 0.00 67 1008.2
20260505015008 64 159 5.0 15.0 0.00 0.00 0.00 67 1008.2
20260505014525 64 173 6.0 13.0 0.00 0.00 0.00 66 1008.1
20260505014008 65 197 7.0 14.0 0.00 0.00 0.00 66 1008.1
20260505013512 65 201 7.0 14.0 0.00 0.00 0.00 66 1008.1
20260505013027 65 188 6.0 15.0 0.00 0.00 0.00 66 1008.1
20260505012510 65 175 4.0 15.0 0.00 0.00 0.00 66 1008.1
20260505012010 65 182 6.0 15.0 0.00 0.00 0.00 65 1008.1
20260505011511 65 200 7.0 14.0 0.00 0.00 0.00 65 1008.1
20260505011005 65 174 4.0 12.0 0.00 0.00 0.00 64 1007.9
20260505010506 66 137 3.0 12.0 0.00 0.00 0.00 64 1008.0
20260505010016 66 220 7.0 12.0 0.00 0.00 0.00 63 1008.0
20260505005507 66 96 5.0 11.0 0.00 0.00 0.00 63 1008.0
20260505005008 66 203 3.0 11.0 0.00 0.00 0.00 62 1008.0
20260505004522 67 171 6.0 16.0 0.00 0.00 0.00 61 1007.9
20260505004009 67 155 7.0 16.0 0.00 0.00 0.00 61 1007.9
20260505003513 67 184 5.0 13.0 0.00 0.00 0.00 61 1008.0
20260505003023 67 159 7.0 18.0 0.00 0.00 0.00 60 1007.9
20260505002515 68 202 6.0 18.0 0.00 0.00 0.00 59 1007.8
20260505002010 68 197 6.0 16.0 0.00 0.00 0.00 60 1007.9
20260505001534 68 201 8.0 16.0 0.00 0.00 0.00 59 1007.8
20260505001005 69 197 8.0 16.0 0.00 0.00 0.00 59 1007.9
20260505000504 69 205 8.0 17.0 0.00 0.00 0.00 58 1007.8
20260505000027 69 160 8.0 17.0 0.00 0.00 0.00 58 1007.8
20260504235509 70 209 3.0 14.0 0.00 0.00 0.00 59 1007.7
20260504235004 70 200 4.0 14.0 0.00 0.00 0.00 57 1007.6
20260504234520 70 158 6.0 13.0 0.00 0.00 0.00 57 1007.6
20260504234007 70 123 6.0 12.0 0.00 0.00 0.00 56 1007.7
20260504233510 70 211 4.0 16.0 0.00 0.00 0.00 56 1007.8
20260504233024 70 184 6.0 16.0 0.00 0.00 0.00 55 1007.9
20260504232508 70 177 6.0 15.0 0.00 0.00 0.00 55 1007.9
20260504232012 70 220 6.0 24.0 0.00 0.00 0.00 54 1007.9
20260504231530 71 132 9.0 24.0 0.00 0.00 0.00 54 1008.1
20260504231014 71 155 9.0 17.0 0.00 0.00 0.00 54 1008.1
20260504230510 72 178 6.0 14.0 0.00 0.00 0.00 54 1008.1
20260504230027 72 204 7.0 17.0 0.00 0.00 0.00 53 1008.1
20260504225503 72 202 8.0 15.0 0.00 0.00 0.00 54 1008.2
20260504225005 73 190 4.0 14.0 0.00 0.00 0.00 53 1008.2
20260504224517 73 173 4.0 11.0 0.00 0.00 0.00 54 1008.2
20260504224009 73 179 6.0 13.0 0.00 0.00 0.00 53 1008.3
20260504223507 73 207 7.0 13.0 0.00 0.00 0.00 52 1008.3
20260504223020 73 189 3.0 14.0 0.00 0.00 0.00 53 1008.3
20260504222508 72 202 6.0 15.0 0.00 0.00 0.00 53 1008.5
20260504222008 73 184 7.0 15.0 0.00 0.00 0.00 52 1008.5
20260504221526 73 229 8.0 15.0 0.00 0.00 0.00 51 1008.5
20260504221009 73 144 7.0 16.0 0.00 0.00 0.00 51 1008.7
20260504220511 73 159 7.0 16.0 0.00 0.00 0.00 52 1008.7
20260504220016 73 192 8.0 18.0 0.00 0.00 0.00 51 1008.7
20260504215503 73 240 9.0 18.0 0.00 0.00 0.00 50 1008.7
20260504215004 73 207 9.0 15.0 0.00 0.00 0.00 50 1008.7
20260504214510 73 230 7.0 16.0 0.00 0.00 0.00 52 1008.8
20260504214004 73 186 7.0 19.0 0.00 0.00 0.00 50 1008.9
20260504213505 73 223 7.0 19.0 0.00 0.00 0.00 51 1008.9
20260504213012 73 191 9.0 20.0 0.00 0.00 0.00 48 1008.9
20260504212502 74 185 8.0 20.0 0.00 0.00 0.00 50 1009.0
20260504212001 74 211 7.0 16.0 0.00 0.00 0.00 51 1009.0
20260504211502 74 160 6.0 20.0 0.00 0.00 0.00 50 1009.0
20260504211002 74 225 8.0 19.0 0.00 0.00 0.00 49 1009.1
20260504210502 73 216 8.0 19.0 0.00 0.00 0.00 49 1009.1
20260504210008 73 227 11.0 19.0 0.00 0.00 0.00 50 1009.2
20260504205503 74 176 9.0 21.0 0.00 0.00 0.00 49 1009.1